Regional Weather Roundup
Issued by NWS State College, PA

Home | Current Version | Previous Version | Text Only | Print | Product List | Glossary Off
Versions: 1 2 3 4 5 6 7 8 9 10 11 12 13 14 15 16 17 18 19 20 21 22 23 24 25 26 27 28 29 30 31 32 33 34 35 36 37 38 39 40 41 42 43 44 45 46 47 48 49 50

000
ASUS41 KCTP 192210
RWRCTP

REGIONAL WEATHER ROUNDUP
NATIONAL WEATHER SERVICE STATE COLLEGE PA
500 PM EST SUN NOV 19 2017

Note: "fair" indicates few or no clouds below 12,000 feet with no
significant weather and/or obstructions to visibility.

* = STATION THAT DOES NOT REPORT PRECIPITATION /E.G. RAIN...SNOW...ETC/
    THUNDER OR FOG.

PAZ002>004-007>009-013>016-020>023-029>032-192300-
WESTERN PENNSYLVANIA

CITY           SKY/WX    TMP DP  RH WIND       PRES   REMARKS
ERIE           CLOUDY    35  28  75 W14G23    29.81S
MEADVILLE      SNOW      31  31 100 W12       29.81R VSB 1/2
FRANKLIN*      LGT SNOW  30  28  93 W14       29.80R VSB 3/4
NEW CASTLE     FLURRIES  33  31  92 W10       29.87R
BEAVER COUNTY  FLURRIES N/A N/A N/A W13       29.85R
BUTLER*        LGT SNOW  34  28  80 W13G22    29.84R
PITTSBURGH INT CLOUDY    35  32  88 W8        29.85R
PITTSBURGH     CLOUDY    35  29  78 W13G24    29.85R
INDIANA*       MOCLDY    36  28  75 NW15G22   29.84R
LATROBE        LGT RAIN  36  30  80 SW13G18   29.85R
WASHINGTON CO* LGT SNOW  36  30  80 W13G18    29.90R FOG
$$

PAZ004>006-010>012-017>019-024>028-033>037-041-042-045-046-049>053-192300-
CENTRAL PENNSYLVANIA

CITY           SKY/WX    TMP DP  RH WIND       PRES   REMARKS
BRADFORD       FLURRIES  31  27  85 W12G23    29.70R
DUBOIS         LGT SNOW  31  27  85 W21G32    29.75R FOG
CLEARFIELD     CLOUDY    35  27  72 W14G21    29.75R
JOHNSTOWN      CLOUDY    32  26  78 W13G23    29.75R
ALTOONA        PTCLDY    37  26  64 W15G23    29.77R
STATE COLLEGE  PTCLDY    36  27  69 W21G29    29.75R
WILLIAMSPORT   CLOUDY    44  26  49 W13G22    29.69R
SELINSGROVE    CLOUDY    41  31  67 SW9       29.74R
FT INDIANTOWN  DRIZZLE   43  27  52 W13       29.73R
CAPITAL CITY   LGT RAIN  44  27  51 W16G25    29.76R
HARRISBURG     LGT RAIN  44  30  57 W18G29    29.75R
YORK           CLOUDY    43  28  55 W12G23    29.77R
$$

PAZ038>040-043-044-047-048-054-055-060>062-067>071-192300-
EASTERN PENNSYLVANIA

CITY           SKY/WX    TMP DP  RH WIND       PRES   REMARKS
SCRANTON       CLOUDY    42  27  55 W7        29.65R
MOUNT POCONO   NOT AVBL
ALLENTOWN      MOCLDY    45  27  49 W18G28    29.67R
QUAKERTOWN*    CLOUDY    45  28  53 W9G18     29.69R
READING        MOCLDY    44  28  53 NW15G24   29.71R
LANCASTER      CLOUDY    44  29  55 W20       29.73R
COATESVILLE    MOCLDY    43  28  56 W12G26    29.73R
POTTSTOWN      CLOUDY    43  25  49 W8G22     29.72R
BLUE BELL      MOCLDY    43  28  56 W7G24     29.71R
DOYLESTOWN     PTCLDY    44  28  53 W13G24    29.67R
WILLOW GROVE   NOT AVBL
NORTH PHILA    CLOUDY    49  28  44 W21G28    29.70R
PHILADELPHIA   MOCLDY    48  24  39 W15G29    29.72R
$$




USA.gov is the U.S. government's official web portal to all federal, state and local government web resources and services.